Regional Weather Roundup
Issued by NWS

Home | Current Version | Previous Version | Graphics & Text | Print | Product List | Glossary On
Versions: 1 2 3 4 5 6 7 8 9 10 11 12 13 14 15 16 17 18 19 20 21 22 23 24 25 26 27 28 29 30 31 32 33 34 35 36 37 38 39 40 41 42 43 44 45 46 47 48 49 50
000
ASUS45 KCYS 292210
RWRWY

WYOMING REGIONAL WEATHER ROUNDUP
NATIONAL WEATHER SERVICE CHEYENNE WY
400 PM MDT FRI MAY 29 2015

NOTE:  "FAIR" INDICATES FEW OR NO CLOUDS BELOW 12,000 FEET
WITH NO SIGNIFICANT WEATHER AND/OR OBSTRUCTIONS TO VISIBILITY.

WYZ001-292300-
YELLOWSTONE NATIONAL PARK

CITY           SKY/WX    TMP DP  RH WIND       PRES   REMARKS
LK YELLOWSTONE   N/A     52  36  54 CALM      30.31F
W YELLOWSTONE  NOT AVBL

$$
WYZ002>013-054>058-071-098>099-292300-
NORTHERN WYOMING

CITY           SKY/WX    TMP DP  RH WIND       PRES   REMARKS
JACKSON        SUNNY     64  39  39 SW12G18   30.24F
CODY           FAIR      61  50  67 NE6       30.23F
GREYBULL       PTSUNNY   69  40  34 E3        30.19F
WORLAND        FAIR      66  44  45 CALM      30.21F
SHERIDAN       CLOUDY    53  47  79 S8        30.29S
BUFFALO        CLOUDY    50  44  80 N6        30.31F
GILLETTE       FAIR      58  40  51 N8G18     30.27F
HULETT         FAIR      55  32  41 N9        30.30S
NEWCASTLE      FAIR      55  36  47 N15       30.26S

$$
WYZ014>020-022>026-101>103-292300-
CENTRAL WYOMING

CITY           SKY/WX    TMP DP  RH WIND       PRES   REMARKS
BIG PINEY      CLOUDY    54  43  66 NW17G28   30.31R
PINEDALE       CLOUDY    59  36  41 W3        30.30F
DUBOIS         CLOUDY    54  36  50 SE9       30.29S
LANDER         PTSUNNY   60  46  59 SE7       30.25F
RIVERTON       FAIR      60  43  53 MISG      30.27F
CASPER         FAIR      54  43  66 N9        30.31S
DOUGLAS        CLOUDY    53  47  79 N12       30.30S

$$
WYZ021-027>030-104>119-292300-
SOUTHERN WYOMING

CITY           SKY/WX    TMP DP  RH WIND       PRES   REMARKS
EVANSTON       PTSUNNY   62  37  39 NW5       30.28F
KEMMERER       FAIR      61  32  33 NW3       30.30F
FORT BRIDGER   PTCLDY    61  41  48 NE7       30.31F
ROCK SPRINGS   FAIR      60  40  47 VRB7      30.29F
DIXON          CLOUDY    56  42  59 CALM      30.32S
RAWLINS        PTSUNNY   56  38  50 NE6       30.30F
SARATOGA       FAIR      55  37  50 N13       30.31F
LARAMIE        LGT RAIN  50  41  71 N16       30.29S
CHEYENNE       PTSUNNY   54  42  64 N17G31    30.26R
TORRINGTON     LGT RAIN  52  49  89 NE13      30.26R
PINE BLUFFS    CLOUDY    50  48  93 NE14      30.26S

$$


USA.gov is the U.S. government's official web portal to all federal, state and local government web resources and services.